Time[GMT],gps_lat[degrees_north](-3m),gps_lon[degrees_west](-3m),gps_2_lat[degrees_north](-3m),gps_2_lon[degrees_west](-3m)
2010-10-13 23:00,42.522800446,-70.565284729,42.53,-70.56
2010-10-14 00:00,42.522731781,-70.565269470,42.52,-70.56
2010-10-14 01:00,42.522815704,-70.565216064,42.52,-70.57
2010-10-14 02:00,42.522785187,-70.565246582,42.52,-70.57
2010-10-14 03:00,42.522785187,-70.565246582,42.52,-70.57
2010-10-14 04:00,42.522766113,-70.565299988,42.52,-70.57
2010-10-14 06:00,42.522766113,-70.565368652,42.52,-70.57
2010-10-14 07:00,42.522766113,-70.565315247,42.52,-70.57
2010-10-14 08:00,42.522716522,-70.565315247,42.52,-70.57
2010-10-14 09:00,42.522731781,-70.565269470,42.52,-70.57
2010-10-14 10:00,42.522785187,-70.565269470,42.52,-70.57
2010-10-14 11:00,42.522785187,-70.565299988,42.52,-70.57
2010-10-14 12:00,42.522731781,-70.565246582,42.52,-70.57
2010-10-14 13:00,42.522750854,-70.565246582,42.52,-70.57
2010-10-14 14:00,42.522785187,-70.565299988,42.52,-70.57
2010-10-14 15:00,42.522815704,-70.565315247,42.52,-70.57
2010-10-14 16:00,42.522785187,-70.565299988,42.52,-70.57
2010-10-14 17:00,42.522750854,-70.565414429,42.52,-70.57
2010-10-14 18:00,42.522815704,-70.565498352,42.52,-70.57
2010-10-14 19:00,42.522834778,-70.565536499,42.52,-70.57
2010-10-14 20:00,42.522800446,-70.565513611,42.52,-70.57
2010-10-14 21:00,42.522815704,-70.565414429,42.52,-70.57
2010-10-14 22:00,42.522800446,-70.565399170,42.52,-70.57
2010-10-14 23:00,42.522785187,-70.565315247,42.52,-70.57
2010-10-15 00:00,42.522834778,-70.565353394,42.52,-70.57
2010-10-15 01:00,42.522800446,-70.565330505,42.52,-70.57
2010-10-15 02:00,42.522800446,-70.565368652,42.52,-70.57
2010-10-15 03:00,42.522766113,-70.565536499,42.52,-70.57
2010-10-15 04:00,42.522716522,-70.565635681,42.52,-70.57
2010-10-15 05:00,42.522682190,-70.565734863,42.52,-70.57
2010-10-15 06:00,42.522483826,-70.565917969,42.52,-70.57
2010-10-15 07:00,42.522384644,-70.565864563,42.52,-70.57
2010-10-15 08:00,42.522415161,-70.565917969,42.52,-70.57
2010-10-15 09:00,42.522533417,-70.565963745,42.52,-70.57
2010-10-15 10:00,42.522617340,-70.565917969,42.52,-70.57
2010-10-15 11:00,42.522800446,-70.565933228,42.52,-70.57
2010-10-15 12:00,42.522899628,-70.565582275,42.52,-70.57
2010-10-15 13:00,42.522583008,-70.564949036,42.52,-70.57
2010-10-15 14:00,42.522617340,-70.564903259,42.52,-70.57
2010-10-15 15:00,42.522598267,-70.564964294,42.52,-70.57
2010-10-15 16:00,42.522666931,-70.564949036,42.52,-70.57
2010-10-15 17:00,42.522598267,-70.564918518,42.52,-70.57
2010-10-15 18:00,42.522598267,-70.564949036,42.52,-70.57
2010-10-15 19:00,42.522567749,-70.564933777,42.52,-70.57
2010-10-15 20:00,42.522483826,-70.564964294,42.52,-70.57
2010-10-15 21:00,42.522598267,-70.565002441,42.52,-70.57
2010-10-15 22:00,42.522483826,-70.564979553,42.52,-70.57
2010-10-15 23:00,42.522533417,-70.564933777,42.52,-70.57
2010-10-16 00:00,42.522518158,-70.564979553,42.52,-70.57
2010-10-16 01:00,42.522617340,-70.564964294,42.52,-70.57
2010-10-16 02:00,42.522583008,-70.564933777,42.52,-70.57
2010-10-16 03:00,42.522598267,-70.564933777,42.52,-70.57
2010-10-16 04:00,42.522567749,-70.564933777,42.52,-70.57
2010-10-16 05:00,42.522449493,-70.564918518,42.52,-70.57
2010-10-16 06:00,42.522365570,-70.565017700,42.52,-70.57
2010-10-16 07:00,42.522365570,-70.565063477,42.52,-70.57
2010-10-16 08:00,42.522300720,-70.565269470,42.52,-70.57
2010-10-16 09:00,42.522300720,-70.565246582,42.52,-70.57
2010-10-16 10:00,42.522300720,-70.565216064,42.52,-70.57
2010-10-16 11:00,42.522281647,-70.565170288,42.52,-70.57
2010-10-16 12:00,42.522281647,-70.565246582,42.52,-70.57
2010-10-16 13:00,42.522281647,-70.565200806,42.52,-70.57
2010-10-16 14:00,42.522300720,-70.565200806,42.52,-70.57
2010-10-16 15:00,42.522335052,-70.565216064,42.52,-70.57
2010-10-16 16:00,42.522251129,-70.565231323,42.52,-70.57
2010-10-16 17:00,42.522201538,-70.565284729,42.52,-70.57
2010-10-16 18:00,42.522167206,-70.565353394,42.52,-70.57
2010-10-16 19:00,42.522148132,-70.565483093,42.52,-70.57
2010-10-16 20:00,42.522201538,-70.565483093,42.52,-70.57
2010-10-16 21:00,,,,
2010-10-16 22:00,42.522167206,-70.565536499,42.52,-70.57
2010-10-16 23:00,42.522216797,-70.565452576,42.52,-70.57
2010-10-17 00:00,42.522201538,-70.565483093,42.52,-70.57
2010-10-17 01:00,42.522201538,-70.565399170,42.52,-70.57
2010-10-17 02:00,42.522232056,-70.565414429,42.52,-70.57
2010-10-17 03:00,42.522232056,-70.565383911,,
2010-10-17 04:00,42.522266388,-70.565353394,42.52,-70.57
2010-10-17 05:00,42.522251129,-70.565368652,42.52,-70.57
2010-10-17 06:00,42.522251129,-70.565353394,42.52,-70.57
2010-10-17 07:00,42.522281647,-70.565452576,42.52,-70.57
2010-10-17 08:00,42.522300720,-70.565483093,42.52,-70.57
2010-10-17 09:00,42.522266388,-70.565483093,42.52,-70.57
2010-10-17 10:00,42.522300720,-70.565399170,42.52,-70.57
2010-10-17 11:00,42.522350311,-70.565299988,42.52,-70.57
2010-10-17 12:00,42.522384644,-70.565315247,42.52,-70.57
2010-10-17 13:00,42.522399902,-70.565269470,42.52,-70.57
2010-10-17 14:00,42.522384644,-70.565231323,42.52,-70.57
2010-10-17 15:00,42.522365570,-70.565269470,42.52,-70.57
2010-10-17 16:00,42.522384644,-70.565231323,42.52,-70.57
2010-10-17 17:00,42.522384644,-70.565269470,42.52,-70.57
2010-10-17 18:00,42.522365570,-70.565315247,42.52,-70.57
2010-10-17 19:00,42.522365570,-70.565429688,42.52,-70.57
2010-10-17 20:00,42.522350311,-70.565452576,42.52,-70.57
2010-10-17 21:00,42.522281647,-70.565429688,42.52,-70.57
2010-10-17 22:00,42.522281647,-70.565498352,42.52,-70.57
2010-10-17 23:00,42.522281647,-70.565498352,42.52,-70.57
2010-10-18 00:00,42.522281647,-70.565498352,42.52,-70.57
2010-10-18 01:00,42.522315979,-70.565483093,42.52,-70.57
2010-10-18 02:00,42.522315979,-70.565429688,42.52,-70.57
2010-10-18 03:00,42.522315979,-70.565399170,42.52,-70.57
2010-10-18 04:00,42.522350311,-70.565399170,42.52,-70.57
2010-10-18 05:00,42.522399902,-70.565315247,42.52,-70.57
2010-10-18 06:00,42.522384644,-70.565269470,42.52,-70.57
2010-10-18 07:00,42.522399902,-70.565284729,42.52,-70.57
2010-10-18 08:00,42.522335052,-70.565353394,42.52,-70.57
2010-10-18 09:00,42.522315979,-70.565399170,42.52,-70.57
2010-10-18 10:00,42.522315979,-70.565368652,42.52,-70.57
2010-10-18 11:00,42.522300720,-70.565452576,42.52,-70.57
2010-10-18 12:00,42.522300720,-70.565467834,42.52,-70.57
2010-10-18 13:00,42.522315979,-70.565330505,42.52,-70.57
2010-10-18 14:00,42.522335052,-70.565299988,42.52,-70.57
2010-10-18 15:00,42.522365570,-70.565299988,42.52,-70.57
2010-10-18 16:00,42.522335052,-70.565299988,42.52,-70.57
2010-10-18 17:00,42.522350311,-70.565269470,42.52,-70.57
2010-10-18 18:00,42.522415161,-70.565246582,42.52,-70.57
2010-10-18 19:00,42.522384644,-70.565269470,42.52,-70.57
2010-10-18 20:00,42.522365570,-70.565399170,42.52,-70.57
2010-10-18 21:00,42.522384644,-70.565315247,42.52,-70.57
2010-10-18 22:00,42.522315979,-70.565429688,42.52,-70.57
2010-10-18 23:00,42.522384644,-70.565582275,42.52,-70.57
2010-10-19 00:00,42.522350311,-70.565551758,42.52,-70.57
2010-10-19 01:00,42.522384644,-70.565551758,42.52,-70.57
2010-10-19 02:00,42.522335052,-70.565467834,42.52,-70.57
2010-10-19 03:00,42.522365570,-70.565429688,42.52,-70.57
2010-10-19 04:00,42.522350311,-70.565399170,42.52,-70.57
2010-10-19 05:00,42.522384644,-70.565399170,42.52,-70.57
2010-10-19 06:00,42.522350311,-70.565429688,42.52,-70.57
2010-10-19 07:00,42.522384644,-70.565467834,42.52,-70.57
2010-10-19 08:00,42.522350311,-70.565498352,42.52,-70.57
2010-10-19 09:00,42.522350311,-70.565513611,42.52,-70.57
2010-10-19 10:00,42.522315979,-70.565452576,42.52,-70.57
2010-10-19 11:00,42.522350311,-70.565551758,42.52,-70.57
2010-10-19 12:00,42.522365570,-70.565551758,42.52,-70.57
2010-10-19 13:00,42.522365570,-70.565498352,42.52,-70.57
2010-10-19 14:00,42.522365570,-70.565467834,42.52,-70.57
2010-10-19 15:00,42.522399902,-70.565498352,42.52,-70.57
2010-10-19 16:00,42.522399902,-70.565498352,42.52,-70.57
2010-10-19 17:00,42.522399902,-70.565513611,42.52,-70.57
2010-10-19 18:00,42.522449493,-70.565467834,42.52,-70.57
2010-10-19 19:00,42.522468567,-70.565498352,,
2010-10-19 20:00,42.522468567,-70.565582275,42.52,-70.57
2010-10-19 21:00,42.522548676,-70.565582275,42.52,-70.57
2010-10-19 22:00,42.522518158,-70.565650940,42.52,-70.57
2010-10-19 23:00,42.522567749,-70.565666199,42.52,-70.57
2010-10-20 00:00,42.522533417,-70.565696716,,
2010-10-20 01:00,42.522533417,-70.565650940,42.52,-70.57
2010-10-20 02:00,42.522548676,-70.565567017,42.52,-70.57
2010-10-20 03:00,42.522548676,-70.565567017,42.52,-70.57
2010-10-20 04:00,42.522567749,-70.565483093,42.52,-70.57
2010-10-20 05:00,42.522598267,-70.565483093,42.52,-70.57
2010-10-20 06:00,42.522583008,-70.565429688,42.52,-70.57
2010-10-20 07:00,,,42.52,-70.57
2010-10-20 08:00,42.522567749,-70.565536499,42.52,-70.57
2010-10-20 09:00,42.522567749,-70.565551758,42.52,-70.57
2010-10-20 10:00,42.522567749,-70.565597534,42.52,-70.57
2010-10-20 11:00,42.522548676,-70.565635681,42.52,-70.57
2010-10-20 12:00,42.522548676,-70.565635681,42.52,-70.57
2010-10-20 13:00,42.522548676,-70.565635681,42.52,-70.57
2010-10-20 14:00,42.522548676,-70.565582275,42.52,-70.57
2010-10-20 15:00,42.522567749,-70.565567017,42.52,-70.57
2010-10-20 16:00,42.522533417,-70.565513611,42.52,-70.57
2010-10-20 17:00,42.522548676,-70.565536499,42.52,-70.57
2010-10-20 18:00,42.522567749,-70.565536499,42.52,-70.57
2010-10-20 19:00,42.522548676,-70.565551758,42.52,-70.57
2010-10-20 20:00,42.522567749,-70.565597534,42.52,-70.57
2010-10-20 21:00,42.522617340,-70.565597534,42.52,-70.57
2010-10-20 22:00,42.522682190,-70.565681458,42.52,-70.57
2010-10-20 23:00,42.522800446,-70.565780640,42.52,-70.57
2010-10-21 00:00,42.522750854,-70.565834045,42.52,-70.57
2010-10-21 01:00,42.522766113,-70.565818787,42.52,-70.57
2010-10-21 02:00,42.522766113,-70.565719604,42.52,-70.57
2010-10-21 03:00,42.522800446,-70.565681458,,
2010-10-21 04:00,42.522731781,-70.565650940,42.52,-70.57
2010-10-21 05:00,42.522731781,-70.565620422,42.52,-70.57
2010-10-21 06:00,42.522731781,-70.565597534,42.52,-70.57
2010-10-21 07:00,42.522750854,-70.565567017,42.52,-70.57
2010-10-21 08:00,42.522731781,-70.565620422,42.52,-70.57
2010-10-21 09:00,42.522766113,-70.565650940,42.52,-70.57
2010-10-21 10:00,42.522750854,-70.565719604,42.52,-70.57
2010-10-21 11:00,42.522766113,-70.565734863,42.52,-70.57
2010-10-21 12:00,42.522766113,-70.565750122,42.52,-70.57
2010-10-21 13:00,42.522750854,-70.565734863,42.52,-70.57
2010-10-21 14:00,42.522766113,-70.565750122,42.52,-70.57
2010-10-21 15:00,,,,
2010-10-21 16:00,42.522785187,-70.565666199,42.52,-70.57
2010-10-21 17:00,42.522785187,-70.565620422,42.52,-70.57
2010-10-21 18:00,42.522785187,-70.565498352,42.52,-70.57
2010-10-21 19:00,42.522785187,-70.565414429,42.52,-70.57
2010-10-21 20:00,42.522800446,-70.565467834,42.52,-70.57
2010-10-21 21:00,42.522651672,-70.565299988,42.52,-70.57
2010-10-21 22:00,42.522533417,-70.565330505,42.52,-70.57
2010-10-21 23:00,42.522567749,-70.565315247,42.52,-70.57
2010-10-22 00:00,42.522548676,-70.565353394,42.52,-70.57
2010-10-22 01:00,42.522583008,-70.565269470,42.52,-70.57
2010-10-22 02:00,42.522499084,-70.565299988,42.52,-70.57
2010-10-22 03:00,42.522483826,-70.565246582,42.52,-70.57
2010-10-22 04:00,42.522499084,-70.565231323,42.52,-70.57
2010-10-22 05:00,42.522499084,-70.565269470,42.52,-70.57
2010-10-22 06:00,42.522533417,-70.565246582,42.52,-70.57
2010-10-22 07:00,42.522533417,-70.565231323,42.52,-70.57
2010-10-22 08:00,42.522567749,-70.565231323,42.52,-70.57
2010-10-22 09:00,42.522583008,-70.565246582,42.52,-70.57
2010-10-22 10:00,42.522548676,-70.565200806,42.52,-70.57
2010-10-22 11:00,42.522533417,-70.565185547,42.52,-70.57
2010-10-22 12:00,42.522518158,-70.565246582,42.52,-70.57
2010-10-22 13:00,42.522518158,-70.565246582,42.52,-70.57
2010-10-22 14:00,42.522483826,-70.565269470,42.52,-70.57
2010-10-22 15:00,42.522533417,-70.565246582,42.52,-70.57
2010-10-22 16:00,42.522518158,-70.565200806,42.52,-70.57
2010-10-22 17:00,42.522499084,-70.565216064,42.52,-70.57
2010-10-22 18:00,42.522499084,-70.565200806,42.52,-70.57
2010-10-22 19:00,42.522518158,-70.565170288,42.52,-70.57
2010-10-22 20:00,42.522449493,-70.565170288,42.52,-70.57
2010-10-22 21:00,42.522483826,-70.565147400,42.52,-70.57
2010-10-22 22:00,42.522415161,-70.565216064,42.52,-70.57
2010-10-22 23:00,42.522399902,-70.565284729,42.52,-70.57
2010-10-23 00:00,42.522483826,-70.565315247,42.52,-70.57
2010-10-23 01:00,42.522483826,-70.565299988,42.52,-70.57
2010-10-23 02:00,42.522518158,-70.565284729,42.52,-70.57
2010-10-23 03:00,42.522499084,-70.565284729,42.52,-70.57
2010-10-23 04:00,42.522533417,-70.565216064,42.52,-70.57
2010-10-23 05:00,42.522533417,-70.565147400,42.52,-70.57
2010-10-23 06:00,42.522567749,-70.565170288,42.52,-70.57
2010-10-23 07:00,42.522583008,-70.565147400,42.52,-70.57
2010-10-23 08:00,42.522632599,-70.565185547,42.52,-70.57
2010-10-23 09:00,42.522598267,-70.565147400,42.52,-70.57
2010-10-23 10:00,42.522533417,-70.565216064,42.52,-70.57
2010-10-23 11:00,42.522499084,-70.565231323,42.52,-70.57
2010-10-23 12:00,42.522533417,-70.565284729,42.52,-70.57
2010-10-23 13:00,42.522548676,-70.565231323,42.52,-70.57
2010-10-23 14:00,42.522533417,-70.565231323,42.52,-70.57
2010-10-23 15:00,42.522434235,-70.565269470,42.52,-70.57
2010-10-23 16:00,42.522483826,-70.565246582,42.52,-70.57
2010-10-23 17:00,42.522548676,-70.565216064,42.52,-70.57
2010-10-23 18:00,42.522533417,-70.565231323,42.52,-70.57
2010-10-23 19:00,42.522533417,-70.565231323,42.52,-70.57
2010-10-23 20:00,42.522548676,-70.565216064,42.52,-70.57
2010-10-23 21:00,42.522533417,-70.565216064,42.52,-70.57
2010-10-23 22:00,42.522518158,-70.565284729,42.52,-70.57
2010-10-23 23:00,42.522434235,-70.565246582,42.52,-70.57
2010-10-24 00:00,42.522468567,-70.565330505,42.52,-70.57
2010-10-24 01:00,42.522483826,-70.565299988,42.52,-70.57
2010-10-24 02:00,42.522449493,-70.565399170,42.52,-70.57
2010-10-24 03:00,42.522449493,-70.565452576,42.52,-70.57
2010-10-24 04:00,42.522415161,-70.565414429,42.52,-70.57
2010-10-24 05:00,42.522399902,-70.565353394,42.52,-70.57
2010-10-24 06:00,42.522415161,-70.565414429,42.52,-70.57
2010-10-24 07:00,42.522449493,-70.565399170,42.52,-70.57
2010-10-24 08:00,42.522449493,-70.565399170,42.52,-70.57
2010-10-24 09:00,42.522449493,-70.565399170,42.52,-70.57
2010-10-24 10:00,42.522483826,-70.565353394,42.52,-70.57
2010-10-24 11:00,42.522468567,-70.565429688,42.52,-70.57
2010-10-24 12:00,42.522483826,-70.565483093,42.52,-70.57
2010-10-24 13:00,42.522499084,-70.565536499,42.52,-70.57
2010-10-24 14:00,42.522533417,-70.565597534,42.52,-70.57
2010-10-24 15:00,42.522499084,-70.565620422,42.52,-70.57
2010-10-24 16:00,42.522518158,-70.565567017,42.52,-70.57
2010-10-24 17:00,42.522548676,-70.565536499,42.52,-70.57
2010-10-24 18:00,42.522583008,-70.565483093,42.52,-70.57
2010-10-24 19:00,42.522583008,-70.565452576,42.52,-70.57
2010-10-24 20:00,42.522701263,-70.565452576,42.52,-70.57
2010-10-24 21:00,42.522716522,-70.565414429,42.52,-70.57
2010-10-24 22:00,42.522701263,-70.565429688,42.52,-70.57
2010-10-24 23:00,42.522666931,-70.565452576,42.52,-70.57
2010-10-25 00:00,42.522598267,-70.565467834,42.52,-70.57
2010-10-25 01:00,42.522632599,-70.565498352,42.52,-70.57
2010-10-25 02:00,42.522651672,-70.565582275,42.52,-70.57
2010-10-25 03:00,42.522632599,-70.565620422,42.52,-70.57
2010-10-25 04:00,42.522598267,-70.565597534,42.52,-70.57
2010-10-25 05:00,42.522617340,-70.565551758,42.52,-70.57
2010-10-25 06:00,42.522632599,-70.565567017,42.52,-70.57
2010-10-25 07:00,42.522617340,-70.565567017,42.52,-70.57
2010-10-25 08:00,42.522632599,-70.565536499,42.52,-70.57
2010-10-25 09:00,42.522632599,-70.565536499,42.52,-70.57
2010-10-25 10:00,42.522701263,-70.565551758,42.52,-70.57
2010-10-25 11:00,42.522632599,-70.565536499,42.52,-70.57
2010-10-25 12:00,42.522598267,-70.565582275,42.52,-70.57
2010-10-25 13:00,42.522583008,-70.565620422,42.52,-70.57
2010-10-25 14:00,42.522567749,-70.565597534,42.52,-70.57
2010-10-25 15:00,42.522533417,-70.565635681,42.52,-70.57
2010-10-25 16:00,42.522583008,-70.565620422,42.52,-70.57
2010-10-25 17:00,42.522598267,-70.565620422,42.52,-70.57
2010-10-25 18:00,42.522598267,-70.565582275,42.52,-70.57
2010-10-25 19:00,42.522617340,-70.565551758,42.52,-70.57
2010-10-25 20:00,42.522617340,-70.565483093,42.52,-70.57
2010-10-25 21:00,42.522651672,-70.565429688,42.52,-70.57
2010-10-25 22:00,42.522651672,-70.565467834,42.52,-70.57
2010-10-25 23:00,42.522617340,-70.565498352,42.52,-70.57
2010-10-26 00:00,42.522617340,-70.565551758,42.52,-70.57
2010-10-26 02:00,42.522666931,-70.565551758,42.52,-70.57
2010-10-26 03:00,42.522682190,-70.565536499,42.52,-70.57
2010-10-26 04:00,42.522716522,-70.565567017,42.52,-70.57
2010-10-26 05:00,42.522750854,-70.565536499,42.52,-70.57
2010-10-26 06:00,42.522701263,-70.565467834,42.52,-70.57
2010-10-26 07:00,42.522701263,-70.565429688,42.52,-70.57
2010-10-26 08:00,42.522731781,-70.565315247,42.52,-70.57
2010-10-26 09:00,42.522750854,-70.565315247,42.52,-70.57
2010-10-26 10:00,42.522750854,-70.565299988,42.52,-70.57
2010-10-26 11:00,42.522731781,-70.565353394,42.52,-70.57
2010-10-26 12:00,42.522716522,-70.565368652,42.52,-70.57
2010-10-26 13:00,42.522731781,-70.565429688,42.52,-70.57
2010-10-26 14:00,42.522701263,-70.565467834,42.52,-70.57
2010-10-26 15:00,42.522567749,-70.565551758,42.52,-70.57
2010-10-26 16:00,42.522548676,-70.565567017,42.52,-70.57
2010-10-26 17:00,42.522567749,-70.565582275,42.52,-70.57
2010-10-26 18:00,42.522567749,-70.565582275,42.52,-70.57
2010-10-26 19:00,42.522583008,-70.565620422,42.52,-70.57
2010-10-26 20:00,42.522651672,-70.565620422,42.52,-70.57
2010-10-26 21:00,42.522682190,-70.565582275,42.52,-70.57
2010-10-26 22:00,42.522766113,-70.565513611,42.52,-70.57
2010-10-26 23:00,42.522766113,-70.565483093,42.52,-70.57
2010-10-27 00:00,42.522682190,-70.565513611,42.52,-70.57
2010-10-27 01:00,42.522766113,-70.565536499,42.52,-70.57
2010-10-27 02:00,42.522750854,-70.565582275,42.52,-70.57
2010-10-27 03:00,,,42.52,-70.57
2010-10-27 04:00,42.522731781,-70.565620422,42.52,-70.57
2010-10-27 05:00,42.522701263,-70.565620422,42.52,-70.57
2010-10-27 06:00,42.522750854,-70.565551758,42.52,-70.57
2010-10-27 07:00,42.522682190,-70.565536499,42.52,-70.57
2010-10-27 08:00,42.522716522,-70.565414429,42.52,-70.57
2010-10-27 09:00,42.522750854,-70.565414429,42.52,-70.57
2010-10-27 10:00,42.522731781,-70.565467834,42.52,-70.57
2010-10-27 11:00,42.522766113,-70.565536499,42.52,-70.57
2010-10-27 12:00,42.522766113,-70.565536499,42.52,-70.57
2010-10-27 13:00,42.522766113,-70.565551758,42.52,-70.57
2010-10-27 14:00,42.522766113,-70.565551758,42.52,-70.57
2010-10-27 15:00,42.522731781,-70.565620422,42.52,-70.57
2010-10-27 16:00,42.522716522,-70.565635681,42.52,-70.57
2010-10-27 17:00,42.522682190,-70.565620422,42.52,-70.57
2010-10-27 18:00,42.522682190,-70.565582275,42.52,-70.57
2010-10-27 19:00,42.522731781,-70.565513611,42.52,-70.57
2010-10-27 20:00,42.522716522,-70.565452576,42.52,-70.57
2010-10-27 21:00,42.522731781,-70.565414429,42.52,-70.57
2010-10-27 22:00,42.522716522,-70.565330505,42.52,-70.57
2010-10-27 23:00,42.522731781,-70.565429688,42.52,-70.57
2010-10-28 00:00,42.522750854,-70.565452576,42.52,-70.57
2010-10-28 01:00,42.522766113,-70.565452576,42.52,-70.57
2010-10-28 02:00,42.522750854,-70.565483093,42.52,-70.57
2010-10-28 03:00,42.522750854,-70.565498352,42.52,-70.57
2010-10-28 04:00,42.522716522,-70.565567017,42.52,-70.57
2010-10-28 05:00,42.522651672,-70.565582275,42.52,-70.57
2010-10-28 06:00,42.522632599,-70.565635681,42.52,-70.57
2010-10-28 07:00,42.522583008,-70.565551758,42.52,-70.57
2010-10-28 08:00,42.522548676,-70.565498352,42.52,-70.57
2010-10-28 09:00,42.522548676,-70.565513611,42.52,-70.57
2010-10-28 10:00,42.522548676,-70.565498352,42.52,-70.57
2010-10-28 11:00,42.522583008,-70.565513611,42.52,-70.57
2010-10-28 12:00,42.522598267,-70.565582275,42.52,-70.57
2010-10-28 13:00,42.522651672,-70.565620422,42.52,-70.57
2010-10-28 14:00,42.522666931,-70.565666199,42.52,-70.57
2010-10-28 15:00,42.522750854,-70.565734863,42.52,-70.57
2010-10-28 16:00,42.522701263,-70.565650940,42.52,-70.57
2010-10-28 17:00,42.522701263,-70.565635681,42.52,-70.57
2010-10-28 18:00,42.522666931,-70.565582275,42.52,-70.57
2010-10-28 20:00,42.522617340,-70.565299988,42.52,-70.57
2010-10-28 21:00,42.522567749,-70.565330505,42.52,-70.57
2010-10-28 22:00,42.522583008,-70.565284729,42.52,-70.57
2010-10-28 23:00,42.522499084,-70.565299988,42.52,-70.57
2010-10-29 00:00,42.522567749,-70.565284729,42.52,-70.57
2010-10-29 01:00,42.522518158,-70.565330505,42.52,-70.57
2010-10-29 02:00,42.522468567,-70.565399170,42.52,-70.57
2010-10-29 03:00,42.522468567,-70.565483093,42.52,-70.57
2010-10-29 04:00,42.522434235,-70.565483093,42.52,-70.57
2010-10-29 05:00,42.522434235,-70.565620422,42.52,-70.57
2010-10-29 06:00,42.522434235,-70.565635681,42.52,-70.57
2010-10-29 07:00,42.522468567,-70.565635681,42.52,-70.57
2010-10-29 08:00,42.522415161,-70.565567017,42.52,-70.57
2010-10-29 09:00,42.522449493,-70.565467834,42.52,-70.57
2010-10-29 10:00,42.522468567,-70.565414429,42.52,-70.57
2010-10-29 11:00,42.522468567,-70.565399170,42.52,-70.57
2010-10-29 12:00,42.522449493,-70.565368652,42.52,-70.57
2010-10-29 13:00,42.522468567,-70.565414429,42.52,-70.57
2010-10-29 14:00,42.522434235,-70.565429688,42.52,-70.57
2010-10-29 15:00,42.522399902,-70.565483093,42.52,-70.57
2010-10-29 16:00,42.522384644,-70.565567017,42.52,-70.57
2010-10-29 17:00,42.522399902,-70.565620422,42.52,-70.57
2010-10-29 18:00,42.522399902,-70.565597534,42.52,-70.57
2010-10-29 19:00,42.522468567,-70.565582275,42.52,-70.57
2010-10-29 20:00,42.522434235,-70.565498352,42.52,-70.57
2010-10-29 21:00,42.522434235,-70.565414429,42.52,-70.57
2010-10-29 22:00,42.522434235,-70.565330505,42.52,-70.57
2010-10-29 23:00,42.522415161,-70.565414429,42.52,-70.57
2010-10-30 00:00,42.522434235,-70.565353394,42.52,-70.57
2010-10-30 01:00,42.522483826,-70.565231323,42.52,-70.57
2010-10-30 02:00,42.522384644,-70.565269470,42.52,-70.57
2010-10-30 03:00,42.522335052,-70.565330505,42.52,-70.57
2010-10-30 04:00,42.522335052,-70.565315247,42.52,-70.57
2010-10-30 05:00,42.522399902,-70.565368652,42.52,-70.57
2010-10-30 06:00,42.522365570,-70.565429688,42.52,-70.57
2010-10-30 07:00,42.522399902,-70.565429688,42.52,-70.57
2010-10-30 08:00,42.522399902,-70.565383911,42.52,-70.57
2010-10-30 09:00,42.522415161,-70.565284729,42.52,-70.57
2010-10-30 10:00,42.522449493,-70.565216064,42.52,-70.57
2010-10-30 11:00,42.522548676,-70.565246582,42.52,-70.57
2010-10-30 12:00,42.522617340,-70.565200806,42.52,-70.57
2010-10-30 13:00,42.522617340,-70.565147400,42.52,-70.57
2010-10-30 14:00,42.522632599,-70.565147400,42.52,-70.57
2010-10-30 15:00,42.522701263,-70.565185547,42.52,-70.57
2010-10-30 16:00,42.522701263,-70.565200806,42.52,-70.57
2010-10-30 17:00,42.522651672,-70.565185547,42.52,-70.57
2010-10-30 18:00,42.522632599,-70.565299988,42.52,-70.57
2010-10-30 19:00,42.522548676,-70.565200806,42.52,-70.57
2010-10-30 20:00,42.522548676,-70.565246582,42.52,-70.57
2010-10-30 21:00,42.522567749,-70.565246582,42.52,-70.57
2010-10-30 22:00,42.522617340,-70.565246582,42.52,-70.57
2010-10-30 23:00,42.522548676,-70.565284729,42.52,-70.57
2010-10-31 00:00,42.522666931,-70.565231323,42.52,-70.57
2010-10-31 01:00,42.522716522,-70.565246582,42.52,-70.57
2010-10-31 02:00,42.522785187,-70.565315247,42.52,-70.57
2010-10-31 03:00,42.522785187,-70.565269470,,
2010-10-31 04:00,42.522766113,-70.565246582,42.52,-70.57
2010-10-31 05:00,42.522716522,-70.565231323,42.52,-70.57
2010-10-31 06:00,42.522750854,-70.565246582,42.52,-70.57
2010-10-31 07:00,42.522666931,-70.565299988,42.52,-70.57